TimePDT,TemperatureF,Dew PointF,Humidity,Sea Level PressureIn,VisibilityMPH,Wind Direction,Wind SpeedMPH,Gust SpeedMPH,PrecipitationIn,Events,Conditions,WindDirDegrees,DateUTC
12:52 AM,64.9,55.0,70,29.92,-9999.0,NNE,4.6,-,N/A,,Unknown,30,2013-09-05 07:52:00
1:52 AM,61.0,55.0,81,29.91,-9999.0,NNW,4.6,-,N/A,,Unknown,330,2013-09-05 08:52:00
2:52 AM,61.0,55.0,81,29.91,-9999.0,West,5.8,-,N/A,,Unknown,270,2013-09-05 09:52:00
3:52 AM,60.1,55.9,86,29.93,-9999.0,ESE,5.8,-,N/A,,Unknown,110,2013-09-05 10:52:00
4:52 AM,61.0,57.9,90,29.93,-9999.0,Calm,Calm,-,0.10,,Unknown,0,2013-09-05 11:52:00
5:52 AM,61.0,57.9,90,29.93,-9999.0,East,4.6,-,N/A,,Unknown,80,2013-09-05 12:52:00
6:52 AM,61.0,57.0,87,29.96,-9999.0,East,9.2,-,N/A,,Unknown,90,2013-09-05 13:52:00
7:52 AM,62.1,57.9,86,29.95,-9999.0,NW,3.5,-,N/A,,Unknown,320,2013-09-05 14:52:00
8:52 AM,66.9,57.0,70,29.94,-9999.0,East,4.6,-,N/A,,Unknown,80,2013-09-05 15:52:00
9:52 AM,72.0,55.9,57,29.93,-9999.0,East,5.8,-,N/A,,Unknown,100,2013-09-05 16:52:00
10:52 AM,75.9,57.9,54,29.92,-9999.0,NE,6.9,-,N/A,,Unknown,50,2013-09-05 17:52:00
11:52 AM,79.0,55.0,44,29.88,-9999.0,NNE,5.8,-,N/A,,Unknown,20,2013-09-05 18:52:00
12:52 PM,75.9,64.0,67,29.87,-9999.0,North,5.8,-,0.04,,Unknown,360,2013-09-05 19:52:00
1:52 PM,78.1,59.0,52,29.84,-9999.0,NW,11.5,-,N/A,,Unknown,320,2013-09-05 20:52:00
2:52 PM,73.0,57.9,59,29.88,-9999.0,Variable,4.6,-,N/A,,Unknown,0,2013-09-05 21:52:00
3:52 PM,82.0,48.9,31,29.79,-9999.0,SSE,15.0,25.3,N/A,,Unknown,160,2013-09-05 22:52:00
4:52 PM,84.0,48.0,28,29.75,-9999.0,South,15.0,24.2,N/A,,Unknown,170,2013-09-05 23:52:00
5:25 PM,80.6,53.6,39,29.88,-9999.0,WNW,17.3,26.5,N/A,,Unknown,290,2013-09-06 00:25:00
5:52 PM,78.1,55.0,45,29.78,-9999.0,NNW,11.5,-,N/A,,Unknown,340,2013-09-06 00:52:00
6:52 PM,73.9,57.9,57,29.82,-9999.0,NE,6.9,-,N/A,,Unknown,40,2013-09-06 01:52:00
7:52 PM,73.9,35.1,24,29.86,-9999.0,SSW,3.5,-,N/A,,Unknown,210,2013-09-06 02:52:00
8:52 PM,73.9,27.0,18,29.89,-9999.0,Variable,3.5,-,N/A,,Unknown,0,2013-09-06 03:52:00
9:52 PM,64.0,36.0,35,29.93,-9999.0,NW,6.9,-,N/A,,Unknown,320,2013-09-06 04:52:00
10:52 PM,59.0,42.1,53,29.96,-9999.0,Calm,Calm,-,N/A,,Unknown,0,2013-09-06 05:52:00
11:52 PM,54.0,44.1,69,29.97,-9999.0,South,9.2,-,N/A,,Unknown,190,2013-09-06 06:52:00